International Virtual Aviation Organisation

Russian Federation and Kazakhstan MCD

 

Карточка аэропорта UNBB

Внимание!
Информация на этой странице в стадии наполнения.
Если вы не увидели какой-то информации, или заметили неточность - пожалуйста сообщите нам!
Спасибо!
Команда RU-STAFF
Название аэропортаМихайловка
Название аэропорта (англ.)Mikhaylovka
Превышение837 ft. (255.1 m.)
Координаты53°21.798', 83°32.382'
Высота перехода700m
Эшелон переходаFL050
Коды ответчика5301-5317
Зона ОрВДНовосибирск РПИ (UNNT)
Данные METARUNBB 281030Z 06002MPS CAVOK M09/M13 Q1032 R06/CLRD66 NOSIG RMK QFE751
Проноз погоды (TAF)UNBB 280800Z 2809/2909 05003G08MPS CAVOK BECMG 2820/2821 15003G08MPS FM290400 18003G08MPS 9999 -SN BKN020
NOTAMshow/hide NOTAM
AWOS   TABLE

Информация о ВПП

ВПП Длина ВПП (м.) Покрытие Курс ВПП Частота ILS
062853Асфальтобетон59 
242853Асфальтобетон239108.7

Диспетчерские позиции




Спутниковое изображение